Вернуться в каталог

COSMOS 2499 DEB

LostPO
NORAD 49928·DEBRIS·🇷🇺 Russia

Запущен May 23, 2014 с Plesetsk Cosmodrome

Loading…

Ближайшие Пролёты (ближайшие 24 часа)

TLE

УстаревшееSource: Space-Track

Эпоха: Jan 26, 2022, 22:02 UTC

1 49928U 14028K   22026.91813342  .00015590  00000-0  62500-1 0  9994
2 49928  82.4517 254.3655 0203937 156.0196 215.7049 12.80209722 11073

Отслеживайте COSMOS 2499 DEB в реальном времени с AllMySat

Download on the App Store